Home   Weather   Halton Hills   Past weeks

Flag for Canada Past Weather in Halton Hills, Ontario, Canada — Yesterday and Last 2 Weeks

Now
46 °F

Clear.


Feels Like: 42 °F
Forecast: 38 / 54 °F
Wind: 9 mph from Northwest

Location: Toronto Pearson International Airport

Current Time: Apr 24, 2017 at 1:50:05 am

Latest Report: Apr 24, 2017 at 1:00 am


Visibility: 15 mi

Pressure: 30.10 "Hg

Humidity: 66%

Dew Point: 36 °F

Location of Halton HillsLocation

Past Weather in Halton Hills — Graph

°F

Halton Hills Temperature Yesterday

Maximum temperature yesterday: 68 °F (at 3:00 pm)
Minimum temperature yesterday: 37 °F (at 5:00 am)
Average temperature yesterday: 53 °F

High & Low Weather Summary for the Past Weeks

 TemperatureHumidityPressure
High72 °F (Apr 10, 12:00 pm)100% (Apr 15, 1:00 pm)30.53 "Hg (Apr 15, 1:00 pm)
Low32 °F (Apr 18, 3:00 am)21% (Apr 14, 4:00 pm)29.70 "Hg (Apr 16, 12:00 pm)
Average51 °F64%30.08 "Hg
* Reported Apr 9 12:00 am — Apr 24 12:00 am, Halton Hills, Weather by CustomWeather, © 2017

Note: Actual official high and low records may vary slightly from our data, if they occured in-between our weather recording intervals... More about our weather records

Advertising

Halton Hills Weather History for the Previous 24 Hours

Scroll right to see more
 ConditionsComfort  
Time TempWeatherWind HumidityBarometerVisibility
12:00 am
Mon, Apr 24
48 °FClear.12 mph58%30.09 "Hg15 mi
11:00 pm
Sun, Apr 23
50 °FClear.12 mph58%30.09 "Hg15 mi
10:00 pm52 °FClear.13 mph54%30.09 "Hg15 mi
9:00 pm55 °FPassing clouds.17 mph51%30.07 "Hg15 mi
8:00 pm63 °FPassing clouds.10 mph39%30.04 "Hg15 mi
7:00 pm66 °FPassing clouds.12 mph28%30.02 "Hg15 mi
6:00 pm68 °FPassing clouds.14 mph24%30.01 "Hg15 mi
5:00 pm68 °FPassing clouds.14 mph28%30.01 "Hg15 mi
4:00 pm68 °FPassing clouds.12 mph26%30.01 "Hg15 mi
3:00 pm68 °FPassing clouds.10 mph28%30.02 "Hg15 mi
2:00 pm66 °FPassing clouds.10 mph28%30.04 "Hg15 mi
1:00 pm64 °FPassing clouds.9 mph30%30.07 "Hg15 mi
12:00 pm61 °FPassing clouds.10 mph31%30.09 "Hg15 mi
11:00 am57 °FPassing clouds.6 mph44%30.10 "Hg15 mi
10:00 am55 °FPassing clouds.9 mph47%30.11 "Hg15 mi
9:00 am50 °FPassing clouds.5 mph54%30.12 "Hg15 mi
8:00 am43 °FPassing clouds.2 mph66%30.12 "Hg15 mi
7:00 am39 °FPassing clouds.3 mph70%30.11 "Hg15 mi
6:00 am37 °FPassing clouds.3 mph70%30.10 "Hg15 mi
5:00 am37 °FClear.3 mph65%30.09 "Hg15 mi
4:00 am41 °FClear.2 mph57%30.09 "Hg15 mi
3:00 am39 °FClear.3 mph65%30.10 "Hg15 mi
2:00 am41 °FClear.3 mph57%30.12 "Hg15 mi
1:00 am43 °FClear.6 mph53%30.13 "Hg15 mi
Weather by CustomWeather, © 2017

See weather overviewHow to use our weather pages